Weather History for CWYJ - January, 2013

Change the Weather History Date:

Monday, January 7, 2013

  Actual Average Record
Temperature  
Mean Temperature 44 °F -  
Max Temperature 48 °F - - ()
Min Temperature 41 °F - - ()
Degree Days  
Heating Degree Days 20    
Moisture  
Dew Point 41 °F    
Average Humidity 88    
Maximum Humidity 96    
Minimum Humidity 72    
Precipitation  
Precipitation 0.16 in - - ()
Sea Level Pressure  
Sea Level Pressure 29.92 in    
Wind  
Wind Speed 4 mph ()    
Max Wind Speed 13 mph    
Max Gust Speed 24 mph    
T = Trace of Precipitation, MM = Missing Value Source: Averaged Metar Reports

Daily Weather History Graph

Daily Weather History Graph

Search for Another Location

Airport or City:

Trip Planner

Search our weather history database for the weather conditions in past years. The results will help you decide how hot, cold, wet, or windy it might be!

Date:

Astronomy

Jan. 07, 2013 Rise Set
Actual Time 8:03 AM PST 4:35 PM PST
Civil Twilight 7:27 AM PST 5:12 PM PST
Nautical Twilight 6:48 AM PST 5:51 PM PST
Astronomical Twilight 6:10 AM PST 6:29 PM PST
Moon 3:28 AM PST (1/7) 12:55 PM PST (1/7)
Length of Visible Light 9h 44m
Length of Day
8h 32m
Waning Crescent, 21% of the Moon is Illuminated
Jan 7
Waning Crescent
Jan 11
New
Jan 18
First Quarter
Jan 26
Full
Feb 3
Last Quarter

Hourly Weather History & Observations

Time (PST) Temp. Windchill Dew Point Humidity Pressure Visibility Wind Dir Wind Speed Gust Speed Precip Events Conditions
12:00 AM 42.4 °F - 40.1 °F 91% 29.91 in - ESE 2.3 mph - 0.03 in   Unknown
1:00 AM 42.6 °F - 40.3 °F 91% 29.89 in - ESE 2.3 mph - 0.02 in   Unknown
2:00 AM 42.3 °F - 40.3 °F 93% 29.88 in - ESE 2.3 mph - 0.04 in   Unknown
3:00 AM 42.4 °F - 40.5 °F 93% 29.86 in - ESE 2.3 mph - 0.02 in   Unknown
4:00 AM 42 °F - 41 °F 94% 29.84 in - SE 2.3 mph - -  
4:00 AM 42.4 °F - 40.8 °F 94% 29.84 in - SE 2.3 mph - 0.03 in   Unknown
5:00 AM 42.3 °F - 40.6 °F 94% 29.79 in - ESE 2.3 mph - 0.02 in   Unknown
6:00 AM 41.9 °F - 40.5 °F 95% 29.79 in - SSE 2.3 mph - 0.02 in   Unknown
7:00 AM 42.3 °F - 41.0 °F 95% 29.77 in - SE 2.3 mph - 0.01 in   Unknown
8:00 AM 43.2 °F 41.5 °F 41.9 °F 95% 29.79 in - SSE 3.5 mph - 0.03 in   Unknown
9:00 AM 43.7 °F 41.1 °F 42.6 °F 96% 29.79 in - SSE 4.6 mph - 0.02 in   Unknown
10:00 AM 44 °F - 43 °F 96% 29.83 in - South 3.5 mph - -  
10:00 AM 44.2 °F 42.7 °F 43.2 °F 96% 29.83 in - South 3.5 mph - N/A   Unknown
11:00 AM 45.7 °F 43.4 °F 44.6 °F 96% 29.82 in - SSW 4.6 mph - 0.02 in   Unknown
12:00 PM 47.8 °F - 46.8 °F 96% 29.86 in - WSW 10.4 mph 21.9 mph 0.01 in   Unknown
2:00 PM 47.3 °F - 45.1 °F 92% 29.89 in - SW 12.7 mph 24.2 mph N/A   Unknown
3:00 PM 48.0 °F - 43.5 °F 84% 29.93 in - WSW 10.4 mph 19.6 mph N/A   Unknown
4:00 PM 47 °F - 41 °F 72% 29.96 in - West 12.7 mph - -  
4:00 PM 46.9 °F - 40.8 °F 79% 29.96 in - West 12.7 mph 23.0 mph N/A   Unknown
5:00 PM 46.2 °F 40.8 °F 40.3 °F 80% 29.99 in - WSW 11.5 mph 23.0 mph N/A   Unknown
6:00 PM 45.7 °F 41.5 °F 39.7 °F 80% 30.02 in - West 8.1 mph 19.6 mph N/A   Unknown
7:00 PM 45.9 °F 41.2 °F 39.9 °F 80% 30.04 in - West 9.2 mph - N/A   Unknown
8:00 PM 45.7 °F 42.0 °F 39.9 °F 80% 30.07 in - West 6.9 mph - N/A   Unknown
9:00 PM 45.3 °F 41.1 °F 39.7 °F 81% 30.09 in - West 8.1 mph - N/A   Unknown
10:00 PM 45 °F - 39 °F 72% 30.10 in - WNW 3.5 mph - -  
10:00 PM 44.8 °F 43.3 °F 38.8 °F 80% 30.10 in - WNW 3.5 mph - N/A   Unknown
11:00 PM 44.4 °F 42.0 °F 38.1 °F 79% 30.12 in - WSW 4.6 mph - N/A   Unknown